Tracking 19242 objects as of 16-Aug-2018
HD Live streaming from Space Station
objects crossing your sky now

COSMOS 1633

Track COSMOS 1633 now!
10-day predictions
COSMOS 1633 is classified as:


NORAD ID: 15592
Int'l Code: 1985-020A
Perigee: 473.7 km
Apogee: 494.1 km
Inclination: 82.5 °
Period: 94.1 minutes
Semi major axis: 6854 km
RCS: 7.2924 m2 (large)
Launch date: March 5, 1985
Source: Commonwealth of Independent States (former USSR) (CIS)
Launch site: PLESETSK MISSILE AND SPACE COMPLEX (PKMTR)
aabbcc
Your satellite tracking list
Your tracking list is empty




NASA's NSSDC Master Catalog

Two Line Element Set (TLE):
1 15592U 85020A   18226.63801025  .00000801  00000-0  26463-4 0  9995
2 15592  82.5360 254.6188 0014916 115.4370 244.8416 15.29679750829003
Source of the keplerian elements: AFSPC